TimeCST,TemperatureF,Dew PointF,Humidity,Sea Level PressureIn,VisibilityMPH,Wind Direction,Wind SpeedMPH,Gust SpeedMPH,PrecipitationIn,Events,Conditions,WindDirDegrees,DateUTC
12:42 AM,61.0,59.0,93,29.80,9.0,Variable,3.5,-,0.00,Rain,Light Rain,0,2013-12-03 06:42:00
12:53 AM,61.0,59.0,93,29.79,10.0,SSW,4.6,-,0.00,,Mostly Cloudy,200,2013-12-03 06:53:00
1:15 AM,61.0,60.1,97,29.79,7.0,SSW,5.8,-,N/A,,Overcast,200,2013-12-03 07:15:00
1:53 AM,62.1,60.1,93,29.78,5.0,SSW,8.1,-,N/A,,Overcast,200,2013-12-03 07:53:00
2:53 AM,62.1,61.0,96,29.79,2.5,SSW,3.5,-,N/A,,Overcast,200,2013-12-03 08:53:00
3:09 AM,62.1,61.0,96,29.79,1.5,SSW,3.5,-,0.00,Rain,Light Rain,210,2013-12-03 09:09:00
3:53 AM,62.1,61.0,96,29.77,1.5,South,3.5,-,0.01,Rain,Light Rain,170,2013-12-03 09:53:00
4:01 AM,62.1,61.0,96,29.78,3.0,South,4.6,-,0.00,,Overcast,170,2013-12-03 10:01:00
4:14 AM,62.1,61.0,96,29.77,1.8,SSE,8.1,-,0.00,,Overcast,160,2013-12-03 10:14:00
4:50 AM,62.6,60.8,94,29.77,0.5,Calm,Calm,-,0.01,Fog-Rain,Light Rain,0,2013-12-03 10:50:00
4:53 AM,62.1,61.0,96,29.77,0.5,Calm,Calm,-,0.01,Fog-Rain,Light Rain,0,2013-12-03 10:53:00
5:53 AM,62.1,61.0,96,29.78,0.5,Calm,Calm,-,0.00,Fog,Fog,0,2013-12-03 11:53:00
6:07 AM,62.1,61.0,96,29.78,0.8,Calm,Calm,-,0.06,Rain,Heavy Rain,0,2013-12-03 12:07:00
6:15 AM,62.1,61.0,96,29.78,0.8,Calm,Calm,-,0.09,Rain,Rain,0,2013-12-03 12:15:00
6:22 AM,62.1,61.0,96,29.78,1.2,Calm,Calm,-,0.11,Rain,Rain,0,2013-12-03 12:22:00
6:33 AM,62.1,61.0,96,29.78,1.2,SE,3.5,-,0.14,Rain,Rain,140,2013-12-03 12:33:00
6:39 AM,62.1,61.0,96,29.79,3.0,SSE,4.6,-,0.15,Rain,Light Rain,150,2013-12-03 12:39:00
6:46 AM,62.1,61.0,96,29.79,3.0,SSE,4.6,-,0.15,Rain,Light Rain,150,2013-12-03 12:46:00
6:53 AM,62.1,61.0,96,29.78,2.5,SSE,3.5,-,0.15,,Overcast,160,2013-12-03 12:53:00
7:06 AM,62.1,61.0,96,29.79,2.5,Calm,Calm,-,N/A,,Overcast,0,2013-12-03 13:06:00
7:14 AM,62.1,61.0,96,29.79,2.5,Calm,Calm,-,N/A,,Overcast,0,2013-12-03 13:14:00
7:28 AM,63.0,62.1,97,29.80,4.0,Calm,Calm,-,0.00,Rain,Light Rain,0,2013-12-03 13:28:00
7:50 AM,62.6,62.6,100,29.81,4.0,Calm,Calm,-,0.00,,Overcast,0,2013-12-03 13:50:00
7:53 AM,63.0,62.1,97,29.81,4.0,Calm,Calm,-,0.00,,Overcast,0,2013-12-03 13:53:00
8:11 AM,64.0,63.0,96,29.82,5.0,Calm,Calm,-,N/A,,Overcast,0,2013-12-03 14:11:00
8:53 AM,66.0,64.0,93,29.82,6.0,South,5.8,-,N/A,,Overcast,180,2013-12-03 14:53:00
9:16 AM,66.9,64.9,93,29.83,6.0,South,6.9,-,N/A,,Overcast,180,2013-12-03 15:16:00
9:20 AM,66.9,64.0,90,29.83,7.0,South,6.9,-,N/A,,Overcast,170,2013-12-03 15:20:00
9:34 AM,66.9,64.9,93,29.83,8.0,South,6.9,-,N/A,,Overcast,180,2013-12-03 15:34:00
9:53 AM,68.0,64.9,90,29.83,10.0,SSW,6.9,-,N/A,,Overcast,210,2013-12-03 15:53:00
10:05 AM,68.0,64.0,87,29.83,10.0,SSW,8.1,-,N/A,,Overcast,200,2013-12-03 16:05:00
10:19 AM,69.1,64.0,84,29.84,10.0,SSW,5.8,-,N/A,,Overcast,210,2013-12-03 16:19:00
10:53 AM,68.0,64.9,90,29.82,10.0,South,9.2,-,0.00,,Overcast,190,2013-12-03 16:53:00
7:46 PM,66.9,64.0,90,29.79,10.0,SSE,8.1,-,N/A,,Partly Cloudy,160,2013-12-04 01:46:00
8:34 PM,68.0,64.9,90,29.80,10.0,South,10.4,-,N/A,,Overcast,190,2013-12-04 02:34:00
8:53 PM,68.0,64.9,90,29.81,10.0,South,8.1,-,N/A,,Overcast,190,2013-12-04 02:53:00
9:40 PM,69.1,64.9,87,29.82,10.0,SSW,8.1,-,N/A,,Overcast,200,2013-12-04 03:40:00
9:53 PM,69.1,64.9,87,29.81,10.0,SSW,10.4,17.3,N/A,,Overcast,200,2013-12-04 03:53:00
10:39 PM,69.1,64.9,87,29.83,10.0,South,10.4,-,N/A,,Overcast,190,2013-12-04 04:39:00
10:46 PM,69.1,64.9,87,29.83,10.0,SSW,9.2,-,N/A,,Mostly Cloudy,200,2013-12-04 04:46:00
10:53 PM,70.0,64.9,84,29.83,10.0,SSW,11.5,-,N/A,,Overcast,210,2013-12-04 04:53:00
11:51 PM,69.8,64.4,83,29.83,10.0,South,8.1,-,N/A,,Partly Cloudy,190,2013-12-04 05:51:00
11:53 PM,68.0,64.9,90,29.82,10.0,SSW,6.9,-,N/A,,Partly Cloudy,200,2013-12-04 05:53:00